DW8500 Weather Reports


Display with metric or nautical units.
time (UTC)temp
F
wind
direction
speed
MPH
gust
MPH
rain 1hr
in
rain 24hr
in
rain mn
in
humidity
%
barometer
mb
20260902170852 70 133 1.0 2.0 0.00 0.10 0.00 56 1018.8
20260902170413 69 137 1.0 2.0 0.00 0.10 0.00 55 1018.9
20260902170051 69 118 0.0 2.0 0.00 0.10 0.00 57 1018.7
20260902165850 69 122 0.0 2.0 0.00 0.12 0.00 58 1019.1
20260902165348 69 125 0.0 2.0 0.00 0.12 0.00 57 1019.2
20260902164848 69 115 0.0 1.0 0.00 0.12 0.00 57 1019.1
20260902164546 69 115 0.0 1.0 0.00 0.12 0.00 57 1018.9
20260902164345 70 115 0.0 1.0 0.00 0.12 0.00 57 1019.2
20260902163843 70 114 0.0 1.0 0.00 0.12 0.00 57 1019.2
20260902163340 69 114 0.0 1.0 0.00 0.12 0.00 58 1019.2
20260902163043 69 114 0.0 1.0 0.00 0.12 0.00 57 1018.9
20260902162834 69 115 0.0 1.0 0.00 0.12 0.00 58 1019.1
20260902161842 68 110 0.0 1.0 0.00 0.12 0.00 58 1019.4
20260902161544 68 110 0.0 1.0 0.00 0.12 0.00 59 1019.2
20260902161342 68 110 0.0 0.0 0.00 0.12 0.00 59 1019.4
20260902160838 67 110 0.0 1.0 0.00 0.12 0.00 59 1019.5
20260902160339 67 110 0.0 1.0 0.00 0.12 0.00 59 1019.5
20260902160036 67 110 0.0 1.0 0.00 0.12 0.00 58 1019.4
20260902155835 68 110 0.0 1.0 0.00 0.12 0.00 58 1019.7
20260902155354 68 110 0.0 1.0 0.00 0.12 0.00 58 1019.8
20260902154851 68 117 0.0 1.0 0.00 0.12 0.00 57 1019.9
20260902154553 67 117 0.0 1.0 0.00 0.12 0.00 60 1019.6
20260902154351 67 117 0.0 1.0 0.00 0.12 0.00 60 1019.9
20260902153845 67 117 0.0 0.0 0.00 0.12 0.00 60 1019.9
20260902153344 66 117 0.0 1.0 0.00 0.12 0.00 60 1020.0
20260902153028 66 117 0.0 1.0 0.00 0.12 0.00 60 1019.7
20260902152341 67 117 0.0 1.0 0.00 0.12 0.00 60 1020.0
20260902151838 67 117 0.0 1.0 0.00 0.12 0.00 60 1019.8
20260902151604 66 117 0.0 1.0 0.00 0.12 0.00 60 1019.6
20260902151358 66 117 0.0 1.0 0.00 0.12 0.00 60 1020.0
20260902150833 66 117 0.0 1.0 0.00 0.12 0.00 61 1020.0
20260902150353 66 115 0.0 1.0 0.00 0.12 0.00 62 1020.0
20260902150051 65 115 0.0 0.0 0.00 0.12 0.00 61 1019.7
20260902145850 65 115 0.0 1.0 0.00 0.12 0.00 61 1020.0
20260902144841 65 115 0.0 1.0 0.00 0.12 0.00 61 1020.2
20260902144544 65 115 0.0 1.0 0.00 0.12 0.00 61 1019.9
20260902144341 66 115 0.0 1.0 0.00 0.12 0.00 61 1020.1
20260902143852 66 115 0.0 1.0 0.00 0.12 0.00 61 1020.2
20260902143350 66 115 0.0 1.0 0.00 0.12 0.00 62 1020.1
20260902143049 65 115 0.0 2.0 0.00 0.12 0.00 62 1019.7
20260902142848 65 114 0.0 2.0 0.00 0.12 0.00 62 1019.9
20260902142349 65 108 1.0 2.0 0.00 0.12 0.00 63 1019.8
20260902141845 65 110 0.0 1.0 0.00 0.12 0.00 63 1019.8
20260902141509 64 110 0.0 1.0 0.00 0.12 0.00 64 1019.5
20260902141344 65 110 0.0 1.0 0.00 0.12 0.00 64 1019.9
20260902140840 64 116 0.0 0.0 0.00 0.12 0.00 64 1019.8
20260902140400 64 116 0.0 0.0 0.00 0.12 0.00 65 1019.7
20260902140038 63 116 0.0 0.0 0.00 0.13 0.00 65 1019.4
20260902135834 64 116 0.0 0.0 0.00 0.13 0.00 65 1019.6
20260902135412 64 116 0.0 0.0 0.00 0.13 0.00 65 1019.5
20260902134847 64 116 0.0 0.0 0.00 0.13 0.00 66 1019.3
20260902134551 63 116 0.0 0.0 0.00 0.13 0.00 66 1018.9
20260902134346 64 117 0.0 0.0 0.00 0.13 0.00 66 1019.2
20260902133844 63 116 0.0 0.0 0.00 0.13 0.00 66 1019.2
20260902133344 63 116 0.0 0.0 0.00 0.13 0.00 66 1019.2
20260902133042 62 116 0.0 0.0 0.00 0.13 0.00 66 1019.0
20260902132841 63 116 0.0 0.0 0.00 0.13 0.00 66 1019.2
20260902132341 62 116 0.0 0.0 0.00 0.13 0.00 66 1019.1
20260902131835 62 115 0.0 0.0 0.00 0.13 0.00 66 1019.2
20260902131602 62 115 0.0 0.0 0.00 0.13 0.00 66 1019.1
20260902131354 62 115 0.0 0.0 0.00 0.13 0.00 66 1019.3
20260902130852 62 115 0.0 0.0 0.00 0.13 0.00 66 1019.1
20260902130352 62 120 0.0 0.0 0.00 0.13 0.00 66 1019.3
20260902130049 62 120 0.0 0.0 0.00 0.13 0.00 66 1019.1
20260902125846 62 120 0.0 0.0 0.00 0.39 0.00 66 1019.5
20260902125345 62 120 0.0 0.0 0.00 0.39 0.00 66 1019.4
20260902124842 62 120 0.0 1.0 0.00 0.39 0.00 66 1019.5
20260902124544 61 120 0.0 1.0 0.00 0.39 0.00 66 1019.2
20260902124342 62 120 0.0 1.0 0.00 0.39 0.00 66 1019.4
20260902123839 62 120 0.0 0.0 0.00 0.39 0.00 66 1019.5
20260902123339 61 120 0.0 0.0 0.00 0.39 0.00 66 1019.4
20260902123110 61 120 0.0 0.0 0.00 0.39 0.00 66 1019.1
20260902122852 61 120 0.0 0.0 0.00 0.39 0.00 66 1019.4
20260902122351 62 120 0.0 0.0 0.00 0.39 0.00 66 1019.6
20260902121848 61 120 0.0 0.0 0.00 0.39 0.00 66 1019.6
20260902121557 61 120 0.0 0.0 0.00 0.39 0.00 66 1019.3
20260902121347 61 120 0.0 0.0 0.00 0.39 0.00 66 1019.5
20260902120906 61 120 0.0 0.0 0.00 0.39 0.00 66 1019.4
20260902120342 61 120 0.0 0.0 0.00 0.39 0.00 66 1019.3
20260902120049 60 120 0.0 0.0 0.00 0.51 0.00 66 1019.1
20260902115840 61 120 0.0 0.0 0.00 0.51 0.00 66 1019.3
20260902115339 61 120 0.0 0.0 0.00 0.51 0.00 66 1019.5
20260902114855 61 120 0.0 0.0 0.00 0.51 0.00 66 1019.6
20260902114556 60 120 0.0 0.0 0.00 0.51 0.00 66 1019.4
20260902114354 61 120 0.0 0.0 0.00 0.51 0.00 66 1019.6
20260902113851 61 120 0.0 0.0 0.00 0.51 0.00 66 1019.6
20260902113350 60 120 0.0 0.0 0.00 0.51 0.00 66 1019.6
20260902113048 60 120 0.0 0.0 0.00 0.51 0.00 66 1019.4
20260902112847 61 120 0.0 0.0 0.00 0.51 0.00 66 1019.6
20260902112345 61 120 0.0 0.0 0.00 0.51 0.00 66 1019.6
20260902111843 60 120 0.0 0.0 0.00 0.51 0.00 66 1019.7
20260902111554 60 120 0.0 0.0 0.00 0.51 0.00 66 1019.4
20260902111340 60 120 0.0 0.0 0.00 0.51 0.00 66 1019.5
20260902110340 60 120 0.0 0.0 0.00 0.51 0.00 66 1019.4
20260902110100 60 120 0.0 0.0 0.00 0.51 0.00 66 1019.1
20260902105853 60 120 0.0 0.0 0.00 0.51 0.00 66 1019.3
20260902105350 60 120 0.0 0.0 0.00 0.51 0.00 66 1019.4
20260902104848 60 120 0.0 0.0 0.00 0.51 0.00 66 1019.4
20260902104549 60 120 0.0 0.0 0.00 0.51 0.00 66 1019.1
20260902104347 60 120 0.0 0.0 0.00 0.51 0.00 66 1019.3
20260902103902 60 120 0.0 0.0 0.00 0.51 0.00 66 1019.1
20260902103342 60 120 0.0 0.0 0.00 0.51 0.00 66 1018.9
20260902103035 60 120 0.0 0.0 0.00 0.51 0.00 66 1018.6
20260902102834 61 120 0.0 0.0 0.00 0.51 0.00 66 1018.9
20260902102334 61 120 0.0 0.0 0.00 0.51 0.00 66 1018.8
20260902101848 61 120 0.0 0.0 0.00 0.51 0.00 66 1018.7
20260902101550 60 120 0.0 0.0 0.00 0.51 0.00 66 1018.5
20260902101347 61 120 0.0 0.0 0.00 0.51 0.00 66 1018.7
20260902100336 60 120 0.0 0.0 0.00 0.51 0.00 66 1018.8
20260902100104 60 120 0.0 0.0 0.00 0.51 0.00 66 1018.5
20260902095852 61 120 0.0 0.0 0.00 0.51 0.00 66 1018.8
20260902095411 60 120 0.0 0.0 0.00 0.51 0.00 66 1018.7
20260902094847 60 120 0.0 0.0 0.00 0.51 0.00 66 1018.7
20260902094547 60 120 0.0 0.0 0.00 0.51 0.00 66 1018.5
20260902094346 60 120 0.0 0.0 0.00 0.51 0.00 66 1018.6
20260902093842 60 120 0.0 0.0 0.00 0.51 0.00 66 1018.6
20260902093342 61 120 0.0 0.0 0.00 0.51 0.00 66 1018.6
20260902093036 60 120 0.0 0.0 0.00 0.51 0.00 66 1018.2
20260902092835 61 120 0.0 0.0 0.00 0.51 0.00 66 1018.5
20260902092351 61 120 0.0 0.0 0.00 0.51 0.00 66 1018.5
20260902091848 60 120 0.0 0.0 0.00 0.51 0.00 66 1018.4
20260902091552 60 120 0.0 0.0 0.00 0.51 0.00 66 1018.1
20260902091346 60 120 0.0 0.0 0.00 0.51 0.00 66 1018.3
20260902090843 60 120 0.0 0.0 0.00 0.51 0.00 66 1018.4
20260902090341 60 120 0.0 0.0 0.00 0.51 0.00 66 1018.3
20260902090040 60 120 0.0 0.0 0.00 0.51 0.00 66 1018.1
20260902085838 60 120 0.0 0.0 0.00 0.51 0.00 66 1018.4
20260902085439 60 120 0.0 0.0 0.00 0.51 0.00 66 1018.5
20260902084852 60 120 0.0 0.0 0.00 0.51 0.00 66 1018.3
20260902084552 60 120 0.0 0.0 0.00 0.51 0.00 66 1018.1
20260902084351 60 120 0.0 0.0 0.00 0.51 0.00 66 1018.3
20260902083849 60 120 0.0 0.0 0.00 0.51 0.00 66 1018.3
20260902083403 60 120 0.0 0.0 0.00 0.51 0.00 66 1018.3
20260902083040 60 120 0.0 0.0 0.00 0.51 0.00 66 1018.1
20260902082839 60 120 0.0 0.0 0.00 0.51 0.00 66 1018.2
20260902082339 60 120 0.0 0.0 0.00 0.51 0.00 66 1018.1
20260902081835 60 120 0.0 0.0 0.00 0.51 0.00 66 1018.1
20260902081537 60 120 0.0 0.0 0.00 0.51 0.00 66 1017.9
20260902081334 60 120 0.0 0.0 0.00 0.51 0.00 66 1018.2
20260902080851 60 120 0.0 0.0 0.00 0.51 0.00 66 1018.3
20260902080350 60 120 0.0 0.0 0.00 0.51 0.00 66 1018.4
20260902080053 60 120 0.0 0.0 0.00 0.51 0.00 66 1018.2
20260902075848 60 120 0.0 0.0 0.00 0.51 0.00 66 1018.4
20260902075348 61 120 0.0 0.0 0.00 0.51 0.00 66 1018.3
20260902074845 61 120 0.0 0.0 0.00 0.51 0.00 66 1018.5
20260902074550 60 120 0.0 0.0 0.00 0.51 0.00 66 1018.2
20260902074345 61 120 0.0 0.0 0.00 0.51 0.00 66 1018.6
20260902073837 61 120 0.0 0.0 0.00 0.51 0.00 66 1018.5
20260902073338 61 120 0.0 0.0 0.00 0.51 0.00 66 1018.5
20260902073036 60 120 0.0 0.0 0.00 0.51 0.00 66 1018.3
20260902072835 61 120 0.0 0.0 0.00 0.51 0.00 66 1018.6
20260902072415 61 120 0.0 0.0 0.00 0.51 0.00 66 1018.8
20260902071911 61 120 0.0 0.0 0.00 0.51 0.00 66 1018.7
20260902071551 60 120 0.0 0.0 0.00 0.51 0.00 66 1018.4
20260902071350 61 120 0.0 0.0 0.00 0.51 0.00 66 1018.6
20260902070847 61 120 0.0 0.0 0.00 0.51 0.00 66 1018.6
20260902070345 61 120 0.0 0.0 0.00 0.51 0.00 66 1018.5
20260902070045 60 120 0.0 0.0 0.00 0.51 0.00 66 1018.0
20260902065843 61 120 0.0 0.0 0.00 0.51 0.00 66 1018.3
20260902065341 61 120 0.0 0.0 0.00 0.51 0.00 66 1018.2
20260902064914 61 120 0.0 0.0 0.00 0.51 0.00 66 1018.2
20260902064548 60 120 0.0 0.0 0.00 0.51 0.00 66 1017.9
20260902064343 61 120 0.0 0.0 0.00 0.51 0.00 66 1018.2
20260902063841 61 120 0.0 0.0 0.00 0.51 0.00 66 1018.2
20260902063342 61 120 0.0 0.0 0.00 0.51 0.00 66 1018.2
20260902063054 60 120 0.0 0.0 0.00 0.51 0.00 66 1017.9
20260902062840 61 120 0.0 0.0 0.00 0.51 0.00 66 1018.3
20260902062340 60 120 0.0 0.0 0.00 0.51 0.00 66 1018.2
20260902061537 60 120 0.0 0.0 0.00 0.51 0.00 66 1018.0
20260902060854 61 120 0.0 0.0 0.00 0.51 0.00 66 1018.3
20260902060348 61 120 0.0 0.0 0.00 0.51 0.00 66 1018.2
20260902060005 60 120 0.0 0.0 0.00 0.51 0.00 66 1018.0
20260902055839 61 120 0.0 0.0 0.00 0.51 0.00 66 1018.2
20260902055348 61 120 0.0 0.0 0.00 0.51 0.00 66 1018.1
20260902054845 61 120 0.0 0.0 0.00 0.51 0.00 66 1018.1
20260902054548 60 120 0.0 0.0 0.00 0.51 0.00 66 1017.8
20260902054344 60 120 0.0 0.0 0.00 0.51 0.00 66 1018.1
20260902053837 61 120 0.0 0.0 0.00 0.51 0.00 66 1018.2
20260902053335 61 120 0.0 0.0 0.00 0.51 0.00 66 1018.1
20260902053054 60 120 0.0 0.0 0.00 0.51 0.00 66 1017.9
20260902052852 61 120 0.0 0.0 0.00 0.51 0.00 66 1018.1
20260902052351 61 120 0.0 0.0 0.00 0.51 0.00 66 1018.1
20260902051845 61 120 0.0 0.0 0.00 0.51 0.00 66 1018.1
20260902051547 60 120 0.0 0.0 0.00 0.51 0.00 66 1017.8
20260902051344 60 120 0.0 0.0 0.00 0.51 0.00 66 1018.0
20260902050838 61 120 0.0 0.0 0.00 0.51 0.00 66 1017.9
20260902050339 61 120 0.0 0.0 0.00 0.51 0.00 66 1017.9
20260902045855 61 120 0.0 0.0 0.00 0.51 0.00 66 1017.7
20260902045353 60 120 0.0 0.0 0.00 0.51 0.00 66 1017.8
20260902044908 60 120 0.0 0.0 0.00 0.51 0.00 66 1017.6
20260902044547 60 120 0.0 0.0 0.00 0.51 0.00 66 1017.3
20260902044347 60 120 0.0 0.0 0.00 0.51 0.00 66 1017.4
20260902043841 60 120 0.0 0.0 0.00 0.51 0.00 66 1017.4
20260902043342 60 120 0.0 0.0 0.00 0.51 0.00 66 1017.3
20260902043047 60 120 0.0 0.0 0.00 0.51 0.00 66 1017.0
20260902042840 60 120 0.0 0.0 0.00 0.51 0.00 66 1017.4
20260902042337 60 120 0.0 0.0 0.00 0.51 0.00 66 1017.4
20260902041854 60 120 0.0 0.0 0.00 0.51 0.00 66 1017.3
20260902041557 60 120 0.0 0.0 0.00 0.51 0.00 66 1017.0
20260902041354 60 120 0.0 0.0 0.00 0.51 0.00 66 1017.2
20260902040908 60 120 0.0 0.0 0.00 0.51 0.00 66 1017.2
20260902040406 60 120 0.0 0.0 0.00 0.51 0.00 66 1017.2
20260902040044 60 120 0.0 0.0 0.00 0.51 0.51 66 1016.9
20260902035842 60 120 0.0 0.0 0.00 0.51 0.51 66 1017.1
20260902035343 60 120 0.0 0.0 0.00 0.51 0.51 66 1017.0
20260902034901 60 120 0.0 0.0 0.00 0.51 0.51 66 1017.0
20260902034601 60 120 0.0 0.0 0.00 0.51 0.51 66 1016.7
20260902034358 60 120 0.0 0.0 0.00 0.51 0.51 66 1017.0
20260902033851 60 120 0.0 0.0 0.00 0.51 0.51 66 1016.8
20260902033351 60 120 0.0 0.0 0.00 0.51 0.51 66 1016.5
20260902033051 60 120 0.0 0.0 0.00 0.51 0.51 66 1016.2
20260902032848 60 120 0.0 0.0 0.00 0.51 0.51 66 1016.5
20260902032345 60 120 0.0 0.0 0.00 0.51 0.51 66 1016.5
20260902031843 61 120 0.0 0.0 0.00 0.51 0.51 66 1016.6
20260902031549 60 120 0.0 0.0 0.00 0.51 0.51 66 1016.2
20260902031342 61 120 0.0 0.0 0.00 0.51 0.51 66 1016.6
20260902030841 61 120 0.0 0.0 0.00 0.51 0.51 66 1016.7
20260902030338 61 120 0.0 0.0 0.00 0.51 0.51 66 1016.7
20260902030056 60 120 0.0 0.0 0.00 0.51 0.51 66 1016.5
20260902025855 61 120 0.0 0.0 0.00 0.51 0.51 66 1016.9
20260902025354 61 120 0.0 0.0 0.00 0.51 0.51 66 1016.9
20260902024847 61 120 0.0 0.0 0.00 0.51 0.51 66 1016.9
20260902024555 60 120 0.0 0.0 0.00 0.51 0.51 66 1016.7
20260902024346 61 120 0.0 0.0 0.00 0.51 0.51 66 1016.9
20260902023843 61 120 0.0 0.0 0.00 0.51 0.51 66 1016.9
20260902023342 61 120 0.0 0.0 0.00 0.51 0.51 66 1016.8
20260902023041 61 120 0.0 0.0 0.00 0.51 0.51 66 1016.5
20260902022839 61 120 0.0 0.0 0.00 0.51 0.51 66 1016.8
20260902022400 61 120 0.0 0.0 0.00 0.51 0.51 66 1016.8
20260902021836 61 120 0.0 0.0 0.00 0.51 0.51 66 1016.9
20260902021538 61 120 0.0 0.0 0.00 0.51 0.51 66 1016.6
20260902021336 61 120 0.0 0.0 0.00 0.51 0.51 66 1016.8
20260902020341 61 120 0.0 0.0 0.00 0.51 0.51 66 1017.1
20260902020037 61 120 0.0 0.0 0.00 0.51 0.51 66 1017.0
20260902015836 61 120 0.0 0.0 0.00 0.51 0.51 66 1017.1
20260902015345 61 120 0.0 0.0 0.00 0.51 0.51 66 1017.2
20260902014840 61 120 0.0 0.0 0.00 0.51 0.51 66 1017.0
20260902014502 61 120 0.0 0.0 0.00 0.51 0.51 66 1016.7
20260902014400 61 120 0.0 0.0 0.00 0.51 0.51 66 1016.9
20260902013915 61 120 0.0 0.0 0.00 0.51 0.51 66 1016.8
20260902013354 61 120 0.0 1.0 0.00 0.51 0.51 66 1016.7
20260902013010 60 120 0.0 1.0 0.00 0.51 0.51 66 1016.4
20260902012909 61 120 0.0 1.0 0.00 0.51 0.51 66 1016.7
20260902012348 61 120 0.0 0.0 0.00 0.51 0.51 66 1016.8
20260902011845 61 120 0.0 0.0 0.00 0.51 0.51 66 1016.7
20260902011545 61 120 0.0 0.0 0.00 0.51 0.51 66 1016.5
20260902011345 61 120 0.0 0.0 0.00 0.51 0.51 66 1016.8
20260902010853 61 120 0.0 0.0 0.00 0.51 0.51 66 1016.9
20260902010412 61 120 0.0 0.0 0.00 0.51 0.51 66 1016.8
20260902010044 61 120 0.0 0.0 0.00 0.51 0.51 66 1016.5
20260902005843 61 120 0.0 0.0 0.00 0.51 0.51 66 1016.7
20260902005402 61 120 0.0 0.0 0.00 0.51 0.51 66 1016.7
20260902004857 61 120 0.0 0.0 0.00 0.51 0.51 66 1016.7
20260902004536 61 120 0.0 0.0 0.00 0.51 0.51 66 1016.4
20260902004335 61 120 0.0 0.0 0.00 0.51 0.51 66 1016.7
20260902003853 61 120 0.0 0.0 0.00 0.51 0.51 66 1016.8
20260902003406 61 120 0.0 0.0 0.00 0.51 0.51 66 1016.7
20260902003007 61 120 0.0 0.0 0.00 0.51 0.51 66 1016.2
20260902002904 61 120 0.0 0.0 0.00 0.51 0.51 66 1016.7
20260902002342 61 120 0.0 0.0 0.00 0.51 0.51 66 1016.5
20260902001837 61 120 0.0 0.0 0.00 0.51 0.51 66 1016.4
20260902001536 61 120 0.0 0.0 0.00 0.51 0.51 66 1016.1
20260902001334 61 120 0.0 0.0 0.00 0.51 0.51 66 1016.4
20260902000912 61 120 0.0 0.0 0.00 0.51 0.51 66 1016.3
20260902000351 61 120 0.0 0.0 0.00 0.51 0.51 66 1016.2
20260902000006 60 120 0.0 0.0 0.00 0.51 0.51 66 1015.9
20260901235904 61 120 0.0 0.0 0.00 0.51 0.51 66 1016.2
20260901235341 61 120 0.0 0.0 0.00 0.51 0.51 66 1016.2
20260901234913 61 120 0.0 0.0 0.00 0.51 0.51 66 1016.2
20260901234555 60 120 0.0 0.0 0.00 0.51 0.51 66 1015.9
20260901234351 61 120 0.0 0.0 0.00 0.51 0.51 66 1016.1
20260901233845 61 120 0.0 0.0 0.00 0.51 0.51 66 1016.1
20260901233344 61 120 0.0 0.0 0.00 0.51 0.51 65 1016.2
20260901233002 60 120 0.0 0.0 0.00 0.51 0.51 65 1015.8
20260901232902 61 120 0.0 0.0 0.00 0.51 0.51 65 1016.2
20260901232340 61 120 0.0 0.0 0.00 0.51 0.51 65 1016.4
20260901231855 61 120 0.0 1.0 0.00 0.51 0.51 65 1016.4
20260901231522 60 120 0.0 1.0 0.00 0.51 0.51 65 1016.1
20260901231415 61 120 0.0 1.0 0.00 0.51 0.51 65 1016.5
20260901230846 61 120 0.0 0.0 0.00 0.51 0.51 65 1016.5
20260901230407 61 120 0.0 0.0 0.00 0.51 0.51 65 1016.5
20260901230059 60 120 0.0 0.0 0.00 0.51 0.51 65 1016.1
20260901225842 61 120 0.0 0.0 0.00 0.51 0.51 65 1016.4
20260901225343 61 120 0.0 1.0 0.00 0.51 0.51 65 1016.3
20260901224859 61 120 0.0 1.0 0.00 0.51 0.51 65 1016.3
20260901224539 61 118 0.0 2.0 0.00 0.51 0.51 65 1015.6
20260901224337 61 118 0.0 2.0 0.00 0.51 0.51 65 1016.1
20260901223852 61 114 0.0 2.0 0.00 0.51 0.51 65 1016.1
20260901223349 61 127 0.0 1.0 0.00 0.51 0.51 65 1016.2
20260901223009 61 127 0.0 2.0 0.00 0.51 0.51 65 1015.7
20260901222907 62 128 0.0 2.0 0.00 0.51 0.51 65 1016.1
20260901222401 62 122 0.0 2.0 0.00 0.51 0.51 65 1016.1
20260901221833 62 310 0.0 1.0 0.00 0.51 0.51 65 1016.1
20260901221555 62 266 0.0 1.0 0.00 0.51 0.51 65 1015.8
20260901221354 63 114 0.0 2.0 0.00 0.51 0.51 65 1016.1
20260901220909 63 110 0.0 2.0 0.00 0.51 0.51 65 1016.0
20260901220348 63 117 0.0 3.0 0.00 0.51 0.51 65 1016.0
20260901220105 63 115 0.0 3.0 0.00 0.51 0.51 65 1015.6
20260901215845 63 136 1.0 3.0 0.00 0.51 0.51 65 1015.9
20260901214836 64 172 0.0 0.0 0.01 0.51 0.51 65 1015.7
20260901214548 63 174 0.0 0.0 0.01 0.51 0.51 65 1015.3
20260901214337 64 174 0.0 0.0 0.01 0.51 0.51 65 1015.8
20260901213849 64 173 0.0 0.0 0.01 0.51 0.51 65 1015.6
20260901213408 64 174 0.0 0.0 0.01 0.51 0.51 65 1015.5
20260901213050 63 174 0.0 0.0 0.01 0.51 0.51 65 1015.1
20260901212845 64 174 0.0 0.0 0.01 0.51 0.51 65 1015.6
20260901212346 64 173 0.0 0.0 0.01 0.51 0.51 65 1015.5
20260901211844 64 174 0.0 0.0 0.01 0.51 0.51 65 1015.5
20260901211546 64 174 0.0 0.0 0.01 0.51 0.51 65 1015.2
20260901211344 64 174 0.0 0.0 0.01 0.51 0.51 65 1015.7
20260901210841 64 174 0.0 0.0 0.02 0.51 0.51 65 1015.6
20260901210339 64 174 0.0 0.0 0.02 0.51 0.51 65 1015.6
20260901210058 64 174 0.0 0.0 0.02 0.51 0.51 65 1015.2
20260901205857 64 174 0.0 0.0 0.02 0.51 0.51 65 1015.5
20260901205412 64 174 0.0 0.0 0.02 0.50 0.50 65 1015.5
20260901204847 64 174 0.0 0.0 0.02 0.50 0.50 65 1015.3
20260901204548 64 174 0.0 0.0 0.02 0.50 0.50 65 1014.9
20260901204346 64 174 0.0 0.0 0.02 0.50 0.50 65 1015.3
20260901203839 64 174 0.0 0.0 0.02 0.50 0.50 65 1015.3
20260901203359 64 173 0.0 0.0 0.02 0.50 0.50 65 1015.2
20260901203021 64 174 0.0 0.0 0.02 0.50 0.50 65 1014.8
20260901202914 64 176 0.0 0.0 0.02 0.50 0.50 65 1015.3
20260901202413 64 256 0.0 0.0 0.02 0.50 0.50 65 1015.3
20260901201849 64 255 0.0 0.0 0.03 0.50 0.50 65 1015.3
20260901201552 64 256 0.0 0.0 0.03 0.50 0.50 65 1014.8
20260901201345 64 263 0.0 0.0 0.03 0.50 0.50 65 1015.2
20260901200904 64 263 0.0 0.0 0.02 0.49 0.49 65 1015.2
20260901200343 64 266 0.0 0.0 0.02 0.49 0.49 65 1015.1
20260901200044 64 266 0.0 0.0 0.02 0.49 0.49 65 1014.8
20260901195840 64 268 0.0 0.0 0.03 0.49 0.49 65 1015.2
20260901195340 64 268 0.0 0.0 0.02 0.48 0.48 65 1015.2
20260901194836 64 268 0.0 0.0 0.02 0.48 0.48 65 1015.3
20260901194556 63 268 0.0 0.0 0.02 0.48 0.48 65 1014.8
20260901194354 64 268 0.0 0.0 0.02 0.48 0.48 65 1015.3
20260901193849 64 268 0.0 0.0 0.02 0.48 0.48 65 1015.2
20260901193405 64 268 0.0 0.0 0.03 0.48 0.48 65 1015.2
20260901193043 63 268 0.0 0.0 0.03 0.48 0.48 65 1014.8
20260901192842 64 268 0.0 0.0 0.03 0.48 0.48 65 1015.2
20260901192341 64 268 0.0 0.0 0.03 0.48 0.48 65 1015.2
20260901191836 64 268 0.0 0.0 0.03 0.47 0.47 65 1015.3
20260901191551 63 268 0.0 0.0 0.03 0.47 0.47 65 1014.8
20260901191335 64 268 0.0 0.0 0.03 0.47 0.47 65 1015.3
20260901190853 64 268 0.0 0.0 0.04 0.47 0.47 65 1015.3
20260901190351 64 274 0.0 0.0 0.05 0.47 0.47 65 1015.3
20260901190008 63 274 0.0 0.0 0.04 0.46 0.46 65 1014.8
20260901185907 64 274 0.0 0.0 0.04 0.46 0.46 65 1015.3
20260901185406 63 274 0.0 0.0 0.04 0.46 0.46 65 1015.3
20260901184842 63 274 0.0 0.0 0.04 0.46 0.46 65 1015.3
20260901184613 63 274 0.0 0.0 0.04 0.46 0.46 65 1014.9
20260901184358 63 274 0.0 0.0 0.04 0.46 0.46 65 1015.3
20260901183912 63 276 0.0 0.0 0.04 0.46 0.46 65 1015.3
20260901183350 63 276 0.0 0.0 0.03 0.45 0.45 65 1015.3
20260901183053 63 276 0.0 0.0 0.03 0.45 0.45 65 1014.9
20260901182847 63 276 0.0 0.0 0.03 0.45 0.45 65 1015.4
20260901182346 63 276 0.0 0.0 0.03 0.45 0.45 65 1015.4
20260901181842 63 276 0.0 0.0 0.02 0.44 0.44 65 1015.3
20260901181553 62 276 0.0 0.0 0.02 0.44 0.44 65 1014.9
20260901181342 63 276 0.0 0.0 0.03 0.44 0.44 65 1015.4
20260901180841 63 276 0.0 0.0 0.02 0.43 0.43 65 1015.3
20260901180437 63 276 0.0 0.0 0.01 0.42 0.42 65 1015.4
20260901180046 62 276 0.0 0.0 0.01 0.42 0.42 65 1014.8
20260901175409 62 276 0.0 0.0 0.01 0.42 0.42 65 1015.4
20260901174843 62 276 0.0 0.0 0.01 0.42 0.42 65 1015.2
20260901174554 62 276 0.0 0.0 0.01 0.42 0.42 65 1014.8
20260901174344 62 276 0.0 0.0 0.01 0.42 0.42 65 1015.2
20260901173901 62 193 0.0 0.0 0.02 0.42 0.42 65 1015.0
20260901173338 62 193 0.0 0.0 0.02 0.42 0.42 65 1015.0
20260901173054 61 194 0.0 0.0 0.02 0.42 0.42 65 1014.5
20260901172853 62 195 0.0 0.0 0.02 0.42 0.42 65 1015.0
20260901172407 61 195 0.0 0.0 0.03 0.42 0.42 65 1015.0
20260901171843 61 195 0.0 0.0 0.03 0.42 0.42 65 1014.9
20260901171541 61 195 0.0 0.0 0.03 0.42 0.42 65 1014.5